This is the latest recevied weather packets stored in our database for station/object KN6KDD. If no packets are shown the sender has not sent any weather packets the latest 10 day(s).
| Time | Temp. | Humidity | Pressure | Rain* | Wind** | Luminosity | Snow |
|---|---|---|---|---|---|---|---|
| 1777070224 | 18.33° C | 67% | 1351.2 hPa | 0 mm | - | 694 W/m² | - |
| 1777069919 | 17.78° C | 64% | 1351.3 hPa | 0 mm | - | 710 W/m² | - |
| 1777069619 | 17.22° C | 66% | 1351 hPa | 0 mm | - | 728 W/m² | - |
| 1777069315 | 17.22° C | 67% | 1351.4 hPa | 0 mm | - | 737 W/m² | - |
| 1777069011 | 17.22° C | 66% | 1351.6 hPa | 0 mm | - | 745 W/m² | - |
| 1777068708 | 17.22° C | 65% | 1351.4 hPa | 0 mm | - | 758 W/m² | - |
| 1777068408 | 18.33° C | 64% | 1351.4 hPa | 0 mm | - | 771 W/m² | - |
| 1777068107 | 17.78° C | 66% | 1351.6 hPa | 0 mm | - | 781 W/m² | - |
| 1777067803 | 17.78° C | 66% | 1351.3 hPa | 0 mm | - | 793 W/m² | - |
| 1777067501 | 17.22° C | 67% | 1351.4 hPa | 0 mm | - | 805 W/m² | - |
| 1777067200 | 17.78° C | 65% | 1351.6 hPa | 0 mm | - | 810 W/m² | - |
| 1777066896 | 17.78° C | 72% | 1351.4 hPa | 0 mm | - | 824 W/m² | - |
| 1777066597 | 18.33° C | 71% | 1351.4 hPa | 0 mm | - | 831 W/m² | - |
| 1777066293 | 17.22° C | 68% | 1351.4 hPa | 0 mm | - | 835 W/m² | - |
| 1777065993 | 18.33° C | 66% | 1351.6 hPa | 0 mm | - | 847 W/m² | - |
| 1777065689 | 18.33° C | 70% | 1351.7 hPa | 0 mm | - | 851 W/m² | - |
| 1777065384 | 18.33° C | 69% | 1351.4 hPa | 0 mm | - | 862 W/m² | - |
| 1777065079 | 17.78° C | 69% | 1351.8 hPa | 0 mm | - | 868 W/m² | - |
| 1777064777 | 17.78° C | 68% | 1351.6 hPa | 0 mm | - | 868 W/m² | - |
| 1777064473 | 17.22° C | 65% | 1351.6 hPa | 0 mm | - | 879 W/m² | - |
| 1777064169 | 17.78° C | 68% | 1351.4 hPa | 0 mm | - | 883 W/m² | - |
| 1777063864 | 17.78° C | 65% | 1351.8 hPa | 0 mm | - | 883 W/m² | - |
| 1777063558 | 17.22° C | 68% | 1351.7 hPa | 0 mm | - | 887 W/m² | - |
| 1777063254 | 17.78° C | 68% | 1351.6 hPa | 0 mm | - | 897 W/m² | - |
| 1777062951 | 16.67° C | 67% | 1352.1 hPa | 0 mm | - | 896 W/m² | - |
* Rain latest hour (hover to see other rain measurements)
** Current wind speed in m/s (hover to see current wind gust speed)